Time,TemperatureF,DewpointF,PressureIn,WindDirection,WindDirectionDegrees,WindSpeedMPH,WindSpeedGustMPH,Humidity,HourlyPrecipIn,Conditions,Clouds,dailyrainin,SoftwareType,DateUTC
2013-01-18 00:04:00,40.4,34.5,-100.00,SSW,202,4.0,8.4,79,0.00,,,0.00,,2013-01-18 06:04:00,
2013-01-18 00:09:00,40.3,35.6,-100.00,SSW,202,4.2,8.4,82,0.00,,,0.00,,2013-01-18 06:09:00,
2013-01-18 00:14:00,40.2,34.9,-100.00,SSW,202,4.3,7.5,80,0.00,,,0.00,,2013-01-18 06:14:00,
2013-01-18 00:19:00,40.2,34.6,-100.00,SSW,202,3.8,6.7,80,0.00,,,0.00,,2013-01-18 06:19:00,
2013-01-18 00:24:00,40.1,35.0,-100.00,SSW,202,3.9,7.1,81,0.00,,,0.00,,2013-01-18 06:24:00,
2013-01-18 00:29:00,40.1,35.1,-100.00,SSW,202,3.9,7.2,81,0.00,,,0.00,,2013-01-18 06:29:00,
2013-01-18 00:34:00,40.0,34.9,-100.00,South,180,3.8,7.2,81,0.00,,,0.00,,2013-01-18 06:34:00,
2013-01-18 00:39:00,40.1,35.2,-100.00,SSW,202,4.0,6.5,82,0.00,,,0.00,,2013-01-18 06:39:00,
2013-01-18 00:44:00,40.1,34.6,-100.00,SSW,202,4.0,6.5,80,0.00,,,0.00,,2013-01-18 06:44:00,
2013-01-18 00:49:00,40.3,35.3,-100.00,South,180,4.3,6.7,82,0.00,,,0.00,,2013-01-18 06:49:00,
2013-01-18 00:54:00,40.2,35.1,-100.00,South,180,3.8,6.7,81,0.00,,,0.00,,2013-01-18 06:54:00,
2013-01-18 00:59:00,40.3,35.9,-100.00,SSW,202,3.1,6.5,84,0.00,,,0.00,,2013-01-18 06:59:00,
2013-01-18 01:04:00,40.4,35.5,-100.00,South,180,3.4,5.8,82,0.00,,,0.00,,2013-01-18 07:04:00,
2013-01-18 01:09:00,40.5,35.5,-100.00,South,180,3.4,7.2,81,0.00,,,0.00,,2013-01-18 07:09:00,
2013-01-18 01:14:00,40.7,35.4,-100.00,South,180,3.5,7.2,81,0.00,,,0.00,,2013-01-18 07:14:00,
2013-01-18 01:19:00,40.7,35.3,-100.00,South,180,3.1,6.2,80,0.00,,,0.00,,2013-01-18 07:19:00,
2013-01-18 01:24:00,40.5,35.3,-100.00,South,180,3.1,6.1,81,0.00,,,0.00,,2013-01-18 07:24:00,
2013-01-18 01:29:00,40.5,35.2,-100.00,SSE,157,3.1,6.2,80,0.00,,,0.00,,2013-01-18 07:29:00,
2013-01-18 01:35:00,40.4,35.1,-100.00,SE,135,3.2,8.3,80,0.00,,,0.00,,2013-01-18 07:35:00,
2013-01-18 01:40:00,40.2,35.0,-100.00,SSE,157,2.8,6.2,81,0.00,,,0.00,,2013-01-18 07:40:00,
2013-01-18 01:45:00,40.3,35.5,-100.00,SSE,157,3.3,6.4,82,0.00,,,0.00,,2013-01-18 07:45:00,
2013-01-18 01:50:00,40.0,35.0,-100.00,SSE,157,3.1,6.4,82,0.00,,,0.00,,2013-01-18 07:50:00,
2013-01-18 01:55:00,39.9,34.8,-100.00,South,180,2.6,6.7,81,0.00,,,0.00,,2013-01-18 07:55:00,
2013-01-18 02:00:00,39.9,35.2,-100.00,South,180,2.4,6.7,83,0.00,,,0.00,,2013-01-18 08:00:00,
2013-01-18 02:05:00,39.9,34.8,-100.00,South,180,2.8,6.3,81,0.00,,,0.00,,2013-01-18 08:05:00,
2013-01-18 02:10:00,39.8,34.8,-100.00,SSW,202,3.6,6.4,82,0.00,,,0.00,,2013-01-18 08:10:00,
2013-01-18 02:15:00,39.5,34.9,-100.00,South,180,2.8,6.4,83,0.00,,,0.00,,2013-01-18 08:15:00,
2013-01-18 02:20:00,39.4,35.5,-100.00,South,180,2.6,6.4,85,0.00,,,0.00,,2013-01-18 08:20:00,
2013-01-18 02:25:00,39.3,35.2,-100.00,SSE,157,2.7,4.9,84,0.00,,,0.00,,2013-01-18 08:25:00,
2013-01-18 02:30:00,39.3,35.1,-100.00,SSE,157,2.9,5.1,84,0.00,,,0.00,,2013-01-18 08:30:00,
2013-01-18 02:35:00,39.3,34.9,-100.00,SSW,202,3.2,6.2,83,0.00,,,0.00,,2013-01-18 08:35:00,
2013-01-18 02:40:00,39.2,35.0,-100.00,SSW,202,3.1,6.2,84,0.00,,,0.00,,2013-01-18 08:40:00,
2013-01-18 02:45:00,39.2,35.1,-100.00,SSW,202,2.8,8.6,85,0.00,,,0.00,,2013-01-18 08:45:00,
2013-01-18 02:50:00,38.9,34.5,-100.00,South,180,2.3,8.6,84,0.00,,,0.00,,2013-01-18 08:50:00,
2013-01-18 02:55:00,39.0,34.7,-100.00,South,180,2.2,5.6,84,0.00,,,0.00,,2013-01-18 08:55:00,
2013-01-18 03:00:00,38.9,34.9,-100.00,SSW,202,2.7,5.6,85,0.00,,,0.00,,2013-01-18 09:00:00,
2013-01-18 03:05:00,38.9,34.9,-100.00,SSW,202,2.9,5.6,85,0.00,,,0.00,,2013-01-18 09:05:00,
2013-01-18 03:10:00,38.9,35.6,-100.00,SSW,202,3.0,6.1,87,0.00,,,0.00,,2013-01-18 09:10:00,
2013-01-18 03:15:00,38.8,34.8,-100.00,SSW,202,3.1,6.1,85,0.00,,,0.00,,2013-01-18 09:15:00,
2013-01-18 03:20:00,38.8,34.8,-100.00,South,180,3.3,5.8,85,0.00,,,0.00,,2013-01-18 09:20:00,
2013-01-18 03:25:00,38.6,34.7,-100.00,SSW,202,3.3,6.5,85,0.00,,,0.00,,2013-01-18 09:25:00,
2013-01-18 03:30:00,38.6,34.9,-100.00,SSW,202,3.1,5.8,86,0.00,,,0.00,,2013-01-18 09:30:00,
2013-01-18 03:35:00,38.6,34.9,-100.00,SW,225,3.4,5.1,86,0.00,,,0.00,,2013-01-18 09:35:00,
2013-01-18 03:41:00,38.6,34.9,-100.00,SSW,202,3.1,5.5,86,0.00,,,0.00,,2013-01-18 09:41:00,
2013-01-18 03:46:00,38.5,34.9,-100.00,SSW,202,3.5,6.2,86,0.00,,,0.00,,2013-01-18 09:46:00,
2013-01-18 03:51:00,38.5,35.1,-100.00,South,180,3.3,7.3,87,0.00,,,0.00,,2013-01-18 09:51:00,
2013-01-18 03:56:00,38.4,34.9,-100.00,SSW,202,4.0,7.3,87,0.00,,,0.00,,2013-01-18 09:56:00,
2013-01-18 04:01:00,38.4,35.4,-100.00,SSW,202,3.4,8.4,88,0.00,,,0.00,,2013-01-18 10:01:00,
2013-01-18 04:06:00,38.3,35.6,-100.00,SSW,202,4.0,8.5,89,0.00,,,0.00,,2013-01-18 10:06:00,
2013-01-18 04:11:00,38.3,35.4,-100.00,SSW,202,4.7,9.2,89,0.00,,,0.00,,2013-01-18 10:11:00,
2013-01-18 04:16:00,38.3,35.6,-100.00,SSW,202,4.0,7.9,89,0.00,,,0.00,,2013-01-18 10:16:00,
2013-01-18 04:21:00,38.1,35.4,-100.00,South,180,3.9,8.6,89,0.00,,,0.00,,2013-01-18 10:21:00,
2013-01-18 04:26:00,38.0,34.6,-100.00,South,180,3.8,8.6,87,0.00,,,0.00,,2013-01-18 10:26:00,
2013-01-18 04:31:00,37.8,34.4,-100.00,South,180,3.3,6.9,87,0.00,,,0.00,,2013-01-18 10:31:00,
2013-01-18 04:36:00,37.8,34.1,-100.00,SSW,202,3.7,9.1,86,0.00,,,0.00,,2013-01-18 10:36:00,
2013-01-18 04:41:00,37.8,34.2,-100.00,SSW,202,4.3,9.7,86,0.00,,,0.00,,2013-01-18 10:41:00,
2013-01-18 04:46:00,37.7,34.9,-100.00,South,180,3.8,9.1,89,0.00,,,0.00,,2013-01-18 10:46:00,
2013-01-18 04:51:00,37.6,34.3,-100.00,South,180,3.5,6.7,87,0.00,,,0.00,,2013-01-18 10:51:00,
2013-01-18 04:56:00,37.6,34.8,-100.00,SSW,202,4.0,7.0,89,0.00,,,0.00,,2013-01-18 10:56:00,
2013-01-18 05:01:00,37.5,35.0,-100.00,South,180,3.8,7.9,90,0.00,,,0.00,,2013-01-18 11:01:00,
2013-01-18 05:06:00,37.5,34.7,-100.00,South,180,4.1,7.9,89,0.00,,,0.00,,2013-01-18 11:06:00,
2013-01-18 05:11:00,37.3,34.4,-100.00,South,180,4.1,6.9,89,0.00,,,0.00,,2013-01-18 11:11:00,
2013-01-18 05:16:00,37.3,33.9,-100.00,South,180,4.1,7.7,87,0.00,,,0.00,,2013-01-18 11:16:00,
2013-01-18 05:21:00,37.2,34.4,-100.00,SSE,157,3.5,8.1,89,0.00,,,0.00,,2013-01-18 11:21:00,
2013-01-18 05:26:00,37.1,34.2,-100.00,SSE,157,2.8,6.5,89,0.00,,,0.00,,2013-01-18 11:26:00,
2013-01-18 05:32:00,37.0,34.2,-100.00,SE,135,3.1,6.5,89,0.00,,,0.00,,2013-01-18 11:32:00,
2013-01-18 05:37:00,36.8,34.3,-100.00,South,180,2.7,6.0,90,0.00,,,0.00,,2013-01-18 11:37:00,
2013-01-18 05:42:00,36.8,34.5,-100.00,SSE,157,2.5,5.9,91,0.00,,,0.00,,2013-01-18 11:42:00,
2013-01-18 05:47:00,36.8,34.6,-100.00,SSE,157,3.2,6.1,91,0.00,,,0.00,,2013-01-18 11:47:00,
2013-01-18 05:52:00,36.7,34.5,-100.00,SE,135,2.9,6.1,91,0.00,,,0.00,,2013-01-18 11:52:00,
2013-01-18 05:57:00,36.6,34.4,-100.00,SE,135,2.1,5.9,91,0.00,,,0.00,,2013-01-18 11:57:00,
2013-01-18 06:02:00,36.6,34.5,-100.00,East,90,2.1,5.2,91,0.00,,,0.00,,2013-01-18 12:02:00,
2013-01-18 06:07:00,36.5,34.0,-100.00,ESE,112,2.6,6.1,90,0.00,,,0.00,,2013-01-18 12:07:00,
2013-01-18 06:12:00,36.4,34.1,-100.00,East,90,2.1,5.3,91,0.00,,,0.00,,2013-01-18 12:12:00,
2013-01-18 06:17:00,36.4,34.2,-100.00,ENE,67,2.2,5.5,91,0.00,,,0.00,,2013-01-18 12:17:00,
2013-01-18 06:22:00,36.4,34.3,-100.00,ENE,67,2.1,5.5,91,0.00,,,0.00,,2013-01-18 12:22:00,
2013-01-18 06:27:00,36.4,34.3,-100.00,East,90,2.9,5.7,91,0.00,,,0.00,,2013-01-18 12:27:00,
2013-01-18 06:32:00,36.4,34.3,-100.00,SSE,157,3.2,5.6,91,0.00,,,0.00,,2013-01-18 12:32:00,
2013-01-18 06:37:00,36.3,34.2,-100.00,South,180,3.3,6.1,92,0.00,,,0.00,,2013-01-18 12:37:00,
2013-01-18 06:42:00,36.2,34.1,-100.00,SSE,157,3.4,7.3,91,0.00,,,0.00,,2013-01-18 12:42:00,
2013-01-18 06:47:00,36.3,34.2,-100.00,SSE,157,4.2,8.3,91,0.00,,,0.00,,2013-01-18 12:47:00,
2013-01-18 06:52:00,36.2,33.9,-100.00,SSE,157,3.9,7.1,91,0.00,,,0.00,,2013-01-18 12:52:00,
2013-01-18 06:57:00,36.2,33.5,-100.00,SSE,157,3.5,7.1,90,0.00,,,0.00,,2013-01-18 12:57:00,
2013-01-18 07:02:00,36.0,33.7,-100.00,SSE,157,3.7,7.2,91,0.00,,,0.00,,2013-01-18 13:02:00,
2013-01-18 07:07:00,36.0,34.0,-100.00,SSE,157,2.8,5.9,91,0.00,,,0.00,,2013-01-18 13:07:00,
2013-01-18 07:12:00,36.2,34.4,-100.00,SSE,157,3.1,6.2,93,0.00,,,0.00,,2013-01-18 13:12:00,
2013-01-18 07:17:00,36.3,34.2,-100.00,South,180,4.1,7.0,91,0.00,,,0.00,,2013-01-18 13:17:00,
2013-01-18 07:22:00,36.4,34.2,-100.00,South,180,3.7,6.8,91,0.00,,,0.00,,2013-01-18 13:22:00,
2013-01-18 07:27:00,36.6,34.3,-100.00,SSE,157,3.6,6.9,91,0.00,,,0.00,,2013-01-18 13:27:00,
2013-01-18 07:32:00,36.8,34.5,-100.00,ESE,112,3.1,5.6,91,0.00,,,0.00,,2013-01-18 13:32:00,
2013-01-18 07:37:00,37.1,34.1,-100.00,ESE,112,3.3,8.0,88,0.00,,,0.00,,2013-01-18 13:37:00,
2013-01-18 07:42:00,37.2,34.3,-100.00,SE,135,3.6,8.0,89,0.00,,,0.00,,2013-01-18 13:42:00,
2013-01-18 07:47:00,37.3,34.3,-100.00,ESE,112,3.9,9.1,88,0.00,,,0.00,,2013-01-18 13:47:00,
2013-01-18 07:52:00,37.4,34.4,-100.00,ESE,112,3.7,8.8,88,0.00,,,0.00,,2013-01-18 13:52:00,
2013-01-18 07:57:00,37.8,34.5,-100.00,ESE,112,4.3,7.9,87,0.00,,,0.00,,2013-01-18 13:57:00,
2013-01-18 08:02:00,38.3,34.1,-100.00,ESE,112,4.8,7.9,84,0.00,,,0.00,,2013-01-18 14:02:00,
2013-01-18 08:07:00,38.6,34.8,-100.00,ESE,112,4.2,7.9,85,0.00,,,0.00,,2013-01-18 14:07:00,
2013-01-18 08:12:00,39.2,34.9,-100.00,ESE,112,4.1,9.3,84,0.00,,,0.00,,2013-01-18 14:12:00,
2013-01-18 08:17:00,39.7,35.1,-100.00,ESE,112,3.6,8.3,83,0.00,,,0.00,,2013-01-18 14:17:00,
2013-01-18 08:22:00,40.0,35.0,-100.00,East,90,3.8,8.3,82,0.00,,,0.00,,2013-01-18 14:22:00,
2013-01-18 08:27:00,40.3,35.4,-100.00,ESE,112,4.0,7.4,82,0.00,,,0.00,,2013-01-18 14:27:00,
2013-01-18 08:32:00,40.3,34.6,-100.00,ESE,112,5.1,9.6,79,0.00,,,0.00,,2013-01-18 14:32:00,
2013-01-18 08:37:00,41.0,34.8,-100.00,ENE,67,4.9,9.6,78,0.00,,,0.00,,2013-01-18 14:37:00,
2013-01-18 08:42:00,41.2,34.6,-100.00,ENE,67,4.2,9.3,77,0.00,,,0.00,,2013-01-18 14:42:00,
2013-01-18 08:47:00,41.6,34.7,-100.00,NE,45,4.6,9.3,76,0.00,,,0.00,,2013-01-18 14:47:00,
2013-01-18 08:53:00,41.9,34.6,-100.00,NE,45,5.2,9.9,74,0.00,,,0.00,,2013-01-18 14:53:00,
2013-01-18 08:58:00,42.2,34.2,-100.00,ENE,67,4.7,9.9,72,0.00,,,0.00,,2013-01-18 14:58:00,
2013-01-18 09:03:00,42.7,34.4,-100.00,NNE,22,5.0,7.8,72,0.00,,,0.00,,2013-01-18 15:03:00,
2013-01-18 09:08:00,43.1,34.1,-100.00,ENE,67,4.8,7.8,70,0.00,,,0.00,,2013-01-18 15:08:00,
2013-01-18 09:13:00,43.8,35.2,-100.00,NE,45,4.6,8.9,71,0.00,,,0.00,,2013-01-18 15:13:00,
2013-01-18 09:18:00,43.7,34.3,-100.00,NE,45,4.4,8.8,69,0.00,,,0.00,,2013-01-18 15:18:00,
2013-01-18 09:23:00,43.9,34.1,-100.00,ENE,67,4.8,8.9,67,0.00,,,0.00,,2013-01-18 15:23:00,
2013-01-18 09:28:00,44.5,34.5,-100.00,NNE,22,5.1,8.9,67,0.00,,,0.00,,2013-01-18 15:28:00,
2013-01-18 09:33:00,44.7,34.4,-100.00,ENE,67,5.0,8.6,66,0.00,,,0.00,,2013-01-18 15:33:00,
2013-01-18 09:38:00,44.9,34.8,-100.00,East,90,5.5,10.7,67,0.00,,,0.00,,2013-01-18 15:38:00,
2013-01-18 09:43:00,45.4,34.6,-100.00,ENE,67,5.3,10.7,65,0.00,,,0.00,,2013-01-18 15:43:00,
2013-01-18 09:48:00,45.7,34.4,-100.00,ENE,67,5.3,9.9,64,0.00,,,0.00,,2013-01-18 15:48:00,
2013-01-18 09:53:00,45.8,34.1,-100.00,NE,45,5.2,8.7,63,0.00,,,0.00,,2013-01-18 15:53:00,
2013-01-18 09:58:00,46.4,34.2,-100.00,NNE,22,4.6,8.3,62,0.00,,,0.00,,2013-01-18 15:58:00,
2013-01-18 10:03:00,47.3,34.9,-100.00,NE,45,3.8,8.1,61,0.00,,,0.00,,2013-01-18 16:03:00,
2013-01-18 10:08:00,47.6,34.8,-100.00,East,90,3.7,6.8,60,0.00,,,0.00,,2013-01-18 16:08:00,
2013-01-18 10:13:00,47.2,34.2,-100.00,ENE,67,4.6,9.2,60,0.00,,,0.00,,2013-01-18 16:13:00,
2013-01-18 10:18:00,48.2,35.0,-100.00,NE,45,4.6,9.2,59,0.00,,,0.00,,2013-01-18 16:18:00,
2013-01-18 10:23:00,48.8,35.0,-100.00,ENE,67,3.6,6.5,58,0.00,,,0.00,,2013-01-18 16:23:00,
2013-01-18 10:28:00,48.7,34.7,-100.00,North,0,3.8,7.3,58,0.00,,,0.00,,2013-01-18 16:28:00,
2013-01-18 10:34:00,49.2,35.2,-100.00,NNE,22,4.3,7.3,58,0.00,,,0.00,,2013-01-18 16:34:00,
2013-01-18 10:39:00,49.5,34.1,-100.00,NE,45,3.5,7.5,54,0.00,,,0.00,,2013-01-18 16:39:00,
2013-01-18 10:44:00,49.9,35.2,-100.00,SE,135,3.6,7.5,56,0.00,,,0.00,,2013-01-18 16:44:00,
2013-01-18 10:49:00,49.3,34.7,-100.00,East,90,3.9,6.8,56,0.00,,,0.00,,2013-01-18 16:49:00,
2013-01-18 10:54:00,50.1,35.1,-100.00,ENE,67,3.5,6.8,55,0.00,,,0.00,,2013-01-18 16:54:00,
2013-01-18 10:59:00,51.7,35.5,-100.00,ENE,67,3.0,4.7,53,0.00,,,0.00,,2013-01-18 16:59:00,
2013-01-18 11:04:00,51.6,35.9,-100.00,NE,45,3.2,7.0,54,0.00,,,0.00,,2013-01-18 17:04:00,
2013-01-18 11:09:00,51.2,34.4,-100.00,East,90,3.3,7.0,52,0.00,,,0.00,,2013-01-18 17:09:00,
2013-01-18 11:14:00,51.9,35.8,-100.00,ESE,112,3.7,6.1,53,0.00,,,0.00,,2013-01-18 17:14:00,
2013-01-18 11:19:00,53.2,36.0,-100.00,ESE,112,3.4,6.1,51,0.00,,,0.00,,2013-01-18 17:19:00,
2013-01-18 11:24:00,52.5,35.2,-100.00,ENE,67,2.7,5.2,51,0.00,,,0.00,,2013-01-18 17:24:00,
2013-01-18 11:29:00,53.2,35.4,-100.00,NNE,22,3.2,6.7,50,0.00,,,0.00,,2013-01-18 17:29:00,
2013-01-18 11:34:00,52.8,34.4,-100.00,North,0,3.5,6.7,49,0.00,,,0.00,,2013-01-18 17:34:00,
2013-01-18 11:39:00,54.5,36.3,-100.00,NNW,337,3.0,6.3,49,0.00,,,0.00,,2013-01-18 17:39:00,
2013-01-18 11:44:00,53.9,35.4,-100.00,North,0,3.0,5.3,49,0.00,,,0.00,,2013-01-18 17:44:00,
2013-01-18 11:49:00,53.8,34.2,-100.00,NNW,337,4.0,7.4,47,0.00,,,0.00,,2013-01-18 17:49:00,
2013-01-18 11:54:00,54.3,34.5,-100.00,NW,315,4.1,7.4,46,0.00,,,0.00,,2013-01-18 17:54:00,
2013-01-18 11:59:00,54.0,34.6,-100.00,NW,315,4.8,9.7,47,0.00,,,0.00,,2013-01-18 17:59:00,
2013-01-18 12:04:00,54.4,34.9,-100.00,NW,315,4.6,9.7,47,0.00,,,0.00,,2013-01-18 18:04:00,
2013-01-18 12:09:00,55.1,34.8,-100.00,North,0,3.8,6.5,45,0.00,,,0.00,,2013-01-18 18:09:00,
2013-01-18 12:14:00,54.3,33.5,-100.00,North,0,4.6,8.0,45,0.00,,,0.00,,2013-01-18 18:14:00,
2013-01-18 12:20:00,55.3,35.7,-100.00,NNW,337,4.4,8.0,47,0.00,,,0.00,,2013-01-18 18:20:00,
2013-01-18 12:25:00,55.3,35.6,-100.00,NNW,337,3.6,7.4,47,0.00,,,0.00,,2013-01-18 18:25:00,
2013-01-18 12:30:00,55.3,35.2,-100.00,NNW,337,3.2,7.4,46,0.00,,,0.00,,2013-01-18 18:30:00,
2013-01-18 12:35:00,55.5,34.6,-100.00,North,0,3.0,7.4,44,0.00,,,0.00,,2013-01-18 18:35:00,
2013-01-18 12:40:00,54.4,34.5,-100.00,NNW,337,4.0,7.4,46,0.00,,,0.00,,2013-01-18 18:40:00,
2013-01-18 12:45:00,55.6,35.2,-100.00,NNW,337,4.2,6.8,45,0.00,,,0.00,,2013-01-18 18:45:00,
2013-01-18 12:50:00,55.4,35.6,-100.00,North,0,3.1,5.9,46,0.00,,,0.00,,2013-01-18 18:50:00,
2013-01-18 12:55:00,55.7,35.6,-100.00,NNW,337,3.3,5.6,46,0.00,,,0.00,,2013-01-18 18:55:00,
2013-01-18 13:00:00,55.3,37.6,-100.00,NNW,337,3.6,6.4,51,0.00,,,0.00,,2013-01-18 19:00:00,
2013-01-18 13:05:00,55.1,37.9,-100.00,North,0,4.0,6.8,51,0.00,,,0.00,,2013-01-18 19:05:00,
2013-01-18 13:10:00,56.1,38.4,-100.00,NNE,22,3.5,6.8,51,0.00,,,0.00,,2013-01-18 19:10:00,
2013-01-18 13:15:00,54.7,37.3,-100.00,NNE,22,3.6,7.9,51,0.00,,,0.00,,2013-01-18 19:15:00,
2013-01-18 13:20:00,54.4,36.5,-100.00,NNE,22,4.4,7.9,50,0.00,,,0.00,,2013-01-18 19:20:00,
2013-01-18 13:25:00,54.0,36.0,-100.00,North,0,4.6,7.6,50,0.00,,,0.00,,2013-01-18 19:25:00,
2013-01-18 13:30:00,54.7,37.6,-100.00,North,0,4.5,7.6,52,0.00,,,0.00,,2013-01-18 19:30:00,
2013-01-18 13:35:00,55.2,38.6,-100.00,North,0,4.2,7.1,53,0.00,,,0.00,,2013-01-18 19:35:00,
2013-01-18 13:40:00,54.7,38.0,-100.00,North,0,4.3,6.8,52,0.00,,,0.00,,2013-01-18 19:40:00,
2013-01-18 13:45:00,54.7,36.6,-100.00,North,0,4.1,6.7,50,0.00,,,0.00,,2013-01-18 19:45:00,
2013-01-18 13:50:00,54.7,38.0,-100.00,NNE,22,4.0,6.7,52,0.00,,,0.00,,2013-01-18 19:50:00,
2013-01-18 13:55:00,55.2,36.6,-100.00,NNE,22,3.6,6.1,49,0.00,,,0.00,,2013-01-18 19:55:00,
2013-01-18 14:00:00,54.3,36.9,-100.00,NNE,22,3.9,7.1,51,0.00,,,0.00,,2013-01-18 20:00:00,
2013-01-18 14:05:00,54.0,36.5,-100.00,North,0,4.2,7.1,51,0.00,,,0.00,,2013-01-18 20:05:00,
2013-01-18 14:10:00,54.2,37.1,-100.00,North,0,4.2,6.4,52,0.00,,,0.00,,2013-01-18 20:10:00,
2013-01-18 14:15:00,54.3,37.7,-100.00,North,0,3.7,6.0,53,0.00,,,0.00,,2013-01-18 20:15:00,
2013-01-18 14:20:00,54.7,37.7,-100.00,North,0,3.6,5.5,52,0.00,,,0.00,,2013-01-18 20:20:00,
2013-01-18 14:26:00,54.3,37.8,-100.00,North,0,3.4,5.6,53,0.00,,,0.00,,2013-01-18 20:26:00,
2013-01-18 14:31:00,55.5,38.8,-100.00,NNE,22,3.3,5.6,52,0.00,,,0.00,,2013-01-18 20:31:00,
2013-01-18 14:36:00,54.6,37.0,-100.00,NNE,22,2.7,5.4,51,0.00,,,0.00,,2013-01-18 20:36:00,
2013-01-18 14:41:00,55.6,38.6,-100.00,North,0,3.0,5.4,52,0.00,,,0.00,,2013-01-18 20:41:00,
2013-01-18 14:46:00,55.2,38.2,-100.00,NNE,22,3.5,6.0,52,0.00,,,0.00,,2013-01-18 20:46:00,
2013-01-18 14:51:00,55.2,38.1,-100.00,NE,45,3.8,6.3,52,0.00,,,0.00,,2013-01-18 20:51:00,
2013-01-18 14:56:00,55.6,38.4,-100.00,NNE,22,3.4,5.2,51,0.00,,,0.00,,2013-01-18 20:56:00,
2013-01-18 15:01:00,55.8,38.6,-100.00,NNE,22,2.9,5.3,51,0.00,,,0.00,,2013-01-18 21:01:00,
2013-01-18 15:06:00,56.3,39.2,-100.00,NNE,22,2.8,5.3,52,0.00,,,0.00,,2013-01-18 21:06:00,
2013-01-18 15:11:00,56.3,39.8,-100.00,NNE,22,2.8,4.4,53,0.00,,,0.00,,2013-01-18 21:11:00,
2013-01-18 15:16:00,55.2,39.0,-100.00,NNE,22,3.0,5.9,54,0.00,,,0.00,,2013-01-18 21:16:00,
2013-01-18 15:21:00,55.3,38.8,-100.00,NNE,22,3.0,5.9,53,0.00,,,0.00,,2013-01-18 21:21:00,
2013-01-18 15:26:00,55.1,38.6,-100.00,NNE,22,2.4,4.7,53,0.00,,,0.00,,2013-01-18 21:26:00,
2013-01-18 15:31:00,55.3,39.0,-100.00,NNE,22,2.0,4.0,53,0.00,,,0.00,,2013-01-18 21:31:00,
2013-01-18 15:36:00,55.5,39.5,-100.00,NNE,22,2.5,4.7,54,0.00,,,0.00,,2013-01-18 21:36:00,
2013-01-18 15:41:00,56.3,39.8,-100.00,NE,45,2.3,4.7,53,0.00,,,0.00,,2013-01-18 21:41:00,
2013-01-18 15:46:00,55.6,38.4,-100.00,NE,45,2.4,4.9,51,0.00,,,0.00,,2013-01-18 21:46:00,
2013-01-18 15:51:00,55.5,39.5,-100.00,NNE,22,2.3,4.6,54,0.00,,,0.00,,2013-01-18 21:51:00,
2013-01-18 15:57:00,55.6,39.0,-100.00,NE,45,2.0,3.9,53,0.00,,,0.00,,2013-01-18 21:57:00,
2013-01-18 16:02:00,55.5,39.3,-100.00,NE,45,2.5,4.2,54,0.00,,,0.00,,2013-01-18 22:02:00,
2013-01-18 16:07:00,55.5,38.8,-100.00,NE,45,2.3,4.2,52,0.00,,,0.00,,2013-01-18 22:07:00,
2013-01-18 16:12:00,55.2,39.1,-100.00,NE,45,2.1,3.9,54,0.00,,,0.00,,2013-01-18 22:12:00,
2013-01-18 16:17:00,54.7,38.9,-100.00,ENE,67,2.5,4.0,54,0.00,,,0.00,,2013-01-18 22:17:00,
2013-01-18 16:22:00,54.8,38.5,-100.00,East,90,2.4,5.0,53,0.00,,,0.00,,2013-01-18 22:22:00,
2013-01-18 16:27:00,54.8,38.6,-100.00,East,90,2.3,4.4,54,0.00,,,0.00,,2013-01-18 22:27:00,
2013-01-18 16:32:00,55.2,39.2,-100.00,East,90,2.0,3.3,54,0.00,,,0.00,,2013-01-18 22:32:00,
2013-01-18 16:37:00,54.7,39.6,-100.00,East,90,1.8,3.3,56,0.00,,,0.00,,2013-01-18 22:37:00,
2013-01-18 16:42:00,54.7,39.6,-100.00,ESE,112,1.8,3.1,56,0.00,,,0.00,,2013-01-18 22:42:00,
2013-01-18 16:47:00,55.0,39.6,-100.00,East,90,1.6,2.8,55,0.00,,,0.00,,2013-01-18 22:47:00,
2013-01-18 16:52:00,55.0,39.4,-100.00,East,90,1.3,3.3,55,0.00,,,0.00,,2013-01-18 22:52:00,
2013-01-18 16:57:00,55.0,39.0,-100.00,East,90,0.9,1.9,54,0.00,,,0.00,,2013-01-18 22:57:00,
2013-01-18 17:02:00,53.9,40.0,-100.00,ENE,67,1.0,2.2,58,0.00,,,0.00,,2013-01-18 23:02:00,
2013-01-18 17:07:00,53.4,40.6,-100.00,ENE,67,1.1,2.2,61,0.00,,,0.00,,2013-01-18 23:07:00,
2013-01-18 17:12:00,52.2,40.9,-100.00,ENE,67,0.9,1.6,64,0.00,,,0.00,,2013-01-18 23:12:00,
2013-01-18 17:17:00,51.2,41.2,-100.00,NE,45,0.9,1.3,68,0.00,,,0.00,,2013-01-18 23:17:00,
2013-01-18 17:23:00,50.6,40.9,-100.00,NNE,22,0.4,1.2,69,0.00,,,0.00,,2013-01-18 23:23:00,
2013-01-18 17:27:00,50.0,41.0,-100.00,NNE,22,0.1,0.4,70,0.00,,,0.00,,2013-01-18 23:27:00,
2013-01-18 17:33:00,49.7,41.5,-100.00,NNE,22,0.0,0.3,73,0.00,,,0.00,,2013-01-18 23:33:00,
2013-01-18 17:38:00,48.9,41.5,-100.00,NNE,22,0.0,0.0,75,0.00,,,0.00,,2013-01-18 23:38:00,
2013-01-18 17:43:00,48.2,41.6,-100.00,NNE,22,0.0,0.0,77,0.00,,,0.00,,2013-01-18 23:43:00,
2013-01-18 17:48:00,47.5,41.4,-100.00,NNE,22,0.0,0.0,79,0.00,,,0.00,,2013-01-18 23:48:00,
2013-01-18 17:53:00,47.2,41.8,-100.00,NNE,22,0.0,0.0,81,0.00,,,0.00,,2013-01-18 23:53:00,
2013-01-18 17:58:00,46.6,41.4,-100.00,NNE,22,0.0,0.0,81,0.00,,,0.00,,2013-01-18 23:58:00,
2013-01-18 18:03:00,46.3,41.4,-100.00,NNE,22,0.0,0.0,82,0.00,,,0.00,,2013-01-19 00:03:00,
2013-01-18 18:08:00,45.6,41.4,-100.00,NNE,22,0.0,0.0,84,0.00,,,0.00,,2013-01-19 00:08:00,
2013-01-18 18:13:00,45.5,41.1,-100.00,NNE,22,0.0,0.0,84,0.00,,,0.00,,2013-01-19 00:13:00,
2013-01-18 18:18:00,45.3,40.8,-100.00,NNE,22,0.0,0.0,84,0.00,,,0.00,,2013-01-19 00:18:00,
2013-01-18 18:23:00,45.0,41.4,-100.00,NNE,22,0.0,0.0,86,0.00,,,0.00,,2013-01-19 00:23:00,
2013-01-18 18:28:00,44.7,41.1,-100.00,NNE,22,0.0,0.0,86,0.00,,,0.00,,2013-01-19 00:28:00,
2013-01-18 18:33:00,44.2,40.7,-100.00,NNE,22,0.0,0.0,87,0.00,,,0.00,,2013-01-19 00:33:00,
2013-01-18 18:38:00,44.0,40.8,-100.00,NNE,22,0.0,0.0,88,0.00,,,0.00,,2013-01-19 00:38:00,
2013-01-18 18:43:00,43.8,40.8,-100.00,NNE,22,0.0,0.0,89,0.00,,,0.00,,2013-01-19 00:43:00,
2013-01-18 18:48:00,43.5,40.6,-100.00,NNE,22,0.0,0.0,89,0.00,,,0.00,,2013-01-19 00:48:00,
2013-01-18 18:53:00,43.2,40.5,-100.00,NNE,22,0.0,0.0,89,0.00,,,0.00,,2013-01-19 00:53:00,
2013-01-18 18:58:00,42.9,40.4,-100.00,NNE,22,0.0,0.0,90,0.00,,,0.00,,2013-01-19 00:58:00,
2013-01-18 19:03:00,42.7,40.0,-100.00,NNE,22,0.0,0.0,90,0.00,,,0.00,,2013-01-19 01:03:00,
2013-01-18 19:08:00,42.5,40.0,-100.00,NNE,22,0.0,0.0,90,0.00,,,0.00,,2013-01-19 01:08:00,
2013-01-18 19:13:00,42.3,40.1,-100.00,NNE,22,0.0,0.0,91,0.00,,,0.00,,2013-01-19 01:13:00,
2013-01-18 19:18:00,42.2,40.0,-100.00,NNE,22,0.0,0.0,91,0.00,,,0.00,,2013-01-19 01:18:00,
2013-01-18 19:24:00,42.1,40.0,-100.00,NNE,22,0.0,0.0,92,0.00,,,0.00,,2013-01-19 01:24:00,
2013-01-18 19:29:00,41.9,39.9,-100.00,NNE,22,0.0,0.0,92,0.00,,,0.00,,2013-01-19 01:29:00,
2013-01-18 19:34:00,41.5,39.6,-100.00,NNE,22,0.0,0.0,93,0.00,,,0.00,,2013-01-19 01:34:00,
2013-01-18 19:39:00,41.6,39.9,-100.00,NNE,22,0.0,0.0,93,0.00,,,0.00,,2013-01-19 01:39:00,
2013-01-18 19:44:00,41.3,39.7,-100.00,NNE,22,0.0,0.0,93,0.00,,,0.00,,2013-01-19 01:44:00,
2013-01-18 19:49:00,41.2,39.8,-100.00,NNE,22,0.0,0.0,94,0.00,,,0.00,,2013-01-19 01:49:00,
2013-01-18 19:54:00,41.0,39.5,-100.00,NNE,22,0.0,0.0,94,0.00,,,0.00,,2013-01-19 01:54:00,
2013-01-18 19:59:00,40.7,39.2,-100.00,NNE,22,0.0,0.0,94,0.00,,,0.00,,2013-01-19 01:59:00,
2013-01-18 20:04:00,40.4,39.1,-100.00,NNE,22,0.0,0.0,94,0.00,,,0.00,,2013-01-19 02:04:00,
2013-01-18 20:09:00,40.2,39.0,-100.00,NNE,22,0.0,0.0,95,0.00,,,0.00,,2013-01-19 02:09:00,
2013-01-18 20:14:00,40.1,39.0,-100.00,NNE,22,0.0,0.0,95,0.00,,,0.00,,2013-01-19 02:14:00,
2013-01-18 20:19:00,40.0,38.7,-100.00,NNE,22,0.0,0.0,95,0.00,,,0.00,,2013-01-19 02:19:00,
2013-01-18 20:24:00,39.8,38.7,-100.00,NNE,22,0.0,0.0,96,0.00,,,0.00,,2013-01-19 02:24:00,
2013-01-18 20:29:00,39.9,39.0,-100.00,NNE,22,0.0,0.0,96,0.00,,,0.00,,2013-01-19 02:29:00,
2013-01-18 20:34:00,39.8,38.9,-100.00,NNE,22,0.0,0.0,96,0.00,,,0.00,,2013-01-19 02:34:00,
2013-01-18 20:39:00,39.4,38.4,-100.00,NNE,22,0.0,0.0,96,0.00,,,0.00,,2013-01-19 02:39:00,
2013-01-18 20:44:00,39.5,38.6,-100.00,NNE,22,0.0,0.0,96,0.00,,,0.00,,2013-01-19 02:44:00,
2013-01-18 20:49:00,39.7,38.8,-100.00,NNE,22,0.0,0.0,96,0.00,,,0.00,,2013-01-19 02:49:00,
2013-01-18 20:54:00,39.7,38.8,-100.00,NNE,22,0.0,0.0,96,0.00,,,0.00,,2013-01-19 02:54:00,
2013-01-18 20:59:00,39.5,38.5,-100.00,NNE,22,0.0,0.0,96,0.00,,,0.00,,2013-01-19 02:59:00,
2013-01-18 21:04:00,39.7,38.9,-100.00,NNE,22,0.0,0.0,96,0.00,,,0.00,,2013-01-19 03:04:00,
2013-01-18 21:09:00,39.5,38.6,-100.00,NNE,22,0.0,0.0,96,0.00,,,0.00,,2013-01-19 03:09:00,
2013-01-18 21:14:00,39.3,38.4,-100.00,NNE,22,0.0,0.0,96,0.00,,,0.00,,2013-01-19 03:14:00,
2013-01-18 21:19:00,39.1,38.3,-100.00,NNE,22,0.0,0.0,96,0.00,,,0.00,,2013-01-19 03:19:00,
2013-01-18 21:24:00,38.9,38.0,-100.00,NNE,22,0.0,0.0,96,0.00,,,0.00,,2013-01-19 03:24:00,
2013-01-18 21:29:00,38.9,38.1,-100.00,NNE,22,0.0,0.0,96,0.00,,,0.00,,2013-01-19 03:29:00,
2013-01-18 21:34:00,38.8,38.1,-100.00,NNE,22,0.0,0.0,97,0.00,,,0.00,,2013-01-19 03:34:00,
2013-01-18 21:40:00,38.8,38.1,-100.00,NNE,22,0.0,0.0,97,0.00,,,0.00,,2013-01-19 03:40:00,
2013-01-18 21:45:00,38.5,37.8,-100.00,NNE,22,0.0,0.4,97,0.00,,,0.00,,2013-01-19 03:45:00,
2013-01-18 21:50:00,38.5,37.8,-100.00,East,90,0.0,0.4,97,0.00,,,0.00,,2013-01-19 03:50:00,
2013-01-18 21:55:00,38.2,37.4,-100.00,SE,135,0.0,0.1,97,0.00,,,0.00,,2013-01-19 03:55:00,
2013-01-18 22:00:00,38.3,37.5,-100.00,SE,135,0.0,0.0,97,0.00,,,0.00,,2013-01-19 04:00:00,
2013-01-18 22:05:00,38.2,37.4,-100.00,SE,135,0.0,0.0,96,0.00,,,0.00,,2013-01-19 04:05:00,
2013-01-18 22:10:00,38.0,37.2,-100.00,SE,135,0.0,0.0,96,0.00,,,0.00,,2013-01-19 04:10:00,
2013-01-18 22:15:00,37.7,37.0,-100.00,SE,135,0.0,0.0,96,0.00,,,0.00,,2013-01-19 04:15:00,
2013-01-18 22:20:00,37.6,36.8,-100.00,SE,135,0.0,0.0,96,0.00,,,0.00,,2013-01-19 04:20:00,
2013-01-18 22:25:00,37.3,36.5,-100.00,SE,135,0.0,0.0,96,0.00,,,0.00,,2013-01-19 04:25:00,
2013-01-18 22:30:00,37.5,36.7,-100.00,SE,135,0.0,0.0,96,0.00,,,0.00,,2013-01-19 04:30:00,
2013-01-18 22:35:00,37.5,36.7,-100.00,SE,135,0.0,0.0,96,0.00,,,0.00,,2013-01-19 04:35:00,
2013-01-18 22:40:00,37.4,36.6,-100.00,SE,135,0.0,0.0,96,0.00,,,0.00,,2013-01-19 04:40:00,
2013-01-18 22:45:00,37.3,36.5,-100.00,SE,135,0.0,0.0,96,0.00,,,0.00,,2013-01-19 04:45:00,
2013-01-18 22:50:00,37.2,36.5,-100.00,SE,135,0.0,0.0,97,0.00,,,0.00,,2013-01-19 04:50:00,
2013-01-18 22:56:00,37.1,36.4,-100.00,SE,135,0.2,1.2,97,0.00,,,0.00,,2013-01-19 04:56:00,
2013-01-18 23:00:00,37.2,36.5,-100.00,SSE,157,0.3,1.2,97,0.00,,,0.00,,2013-01-19 05:00:00,
2013-01-18 23:01:00,37.0,36.3,-100.00,South,180,0.3,1.2,97,0.00,,,0.00,,2013-01-19 05:01:00,
2013-01-18 23:02:00,37.0,36.3,-100.00,South,180,0.2,1.2,97,0.00,,,0.00,,2013-01-19 05:02:00,
2013-01-18 23:07:00,37.1,36.4,-100.00,South,180,0.1,0.7,97,0.00,,,0.00,,2013-01-19 05:07:00,
2013-01-18 23:12:00,37.1,36.4,-100.00,South,180,0.0,0.4,97,0.00,,,0.00,,2013-01-19 05:12:00,
2013-01-18 23:17:00,37.0,36.3,-100.00,South,180,0.0,0.4,97,0.00,,,0.00,,2013-01-19 05:17:00,
2013-01-18 23:22:00,37.0,36.3,-100.00,South,180,0.0,0.0,97,0.00,,,0.00,,2013-01-19 05:22:00,
2013-01-18 23:27:00,37.0,36.4,-100.00,South,180,0.0,0.3,97,0.00,,,0.00,,2013-01-19 05:27:00,
2013-01-18 23:32:00,37.0,36.3,-100.00,South,180,0.0,0.3,97,0.00,,,0.00,,2013-01-19 05:32:00,
2013-01-18 23:37:00,36.8,36.3,-100.00,South,180,0.0,0.0,97,0.00,,,0.00,,2013-01-19 05:37:00,
2013-01-18 23:42:00,36.7,36.2,-100.00,South,180,0.0,0.0,97,0.00,,,0.00,,2013-01-19 05:42:00,
2013-01-18 23:47:00,36.7,36.0,-100.00,South,180,0.0,0.0,97,0.00,,,0.00,,2013-01-19 05:47:00,
2013-01-18 23:52:00,36.7,36.0,-100.00,South,180,0.0,0.0,97,0.00,,,0.00,,2013-01-19 05:52:00,
2013-01-18 23:57:00,36.6,36.0,-100.00,South,180,0.0,0.0,97,0.00,,,0.00,,2013-01-19 05:57:00,